Williamsport, PA

8:01 PM EDT on May 29, 2017 (GMT -0400)
Williamsport Rgnl

Weather History for KIPT - February, 2012

Change the Weather History Date:

Thursday, February 23, 2012

  Actual Average Record
Temperature  
Mean Temperature 44 °F 31 °F  
Max Temperature 53 °F 40 °F 70 °F (1985)
Min Temperature 35 °F 23 °F -6 °F (1972)
Degree Days  
Heating Degree Days 21 34  
Month to date heating degree days 697 824  
Since 1 July heating degree days 3607 4303  
Cooling Degree Days 0 0  
Month to date cooling degree days 0 0  
Year to date cooling degree days 0 0  
Moisture  
Dew Point 31 °F    
Average Humidity 60    
Maximum Humidity 92    
Minimum Humidity 28    
Precipitation  
Precipitation 0.09 in 0.08 in 2.18 in (1981)
Month to date precipitation 0.95 1.91  
Year to date precipitation 3.94 4.61  
Snow  
Snow 0.00 in 0.30 in 9.00 in (1935)
Month to date snowfall 3.6 7.3  
Since 1 July snowfall 11.7 26.5  
Snow Depth 0.00 in    
Sea Level Pressure  
Sea Level Pressure 29.55 in    
Wind  
Wind Speed 7 mph (West)    
Max Wind Speed 22 mph    
Max Gust Speed 31 mph    
Visibility 10 miles    
Events Rain    
T = Trace of Precipitation, MM = Missing Value Source: NWS Daily Summary

Daily Weather History Graph

Daily Weather History Graph

Search for Another Location

Airport or City:

Trip Planner

Search our weather history database for the weather conditions in past years. The results will help you decide how hot, cold, wet, or windy it might be!

Date:

Astronomy

Feb. 23, 2012 Rise Set
Actual Time 6:51 AM EST 5:50 PM EST
Civil Twilight 6:24 AM EST 6:18 PM EST
Nautical Twilight 5:51 AM EST 6:50 PM EST
Astronomical Twilight 5:20 AM EST 7:22 PM EST
Moon 7:15 AM EST (2/23) 7:56 PM EST (2/23)
Length of Visible Light 11h 54m
Length of Day
10h 58m
Waxing Crescent, 3% of the Moon is Illuminated
Feb 23
Waxing Crescent
Feb 29
First Quarter
Mar 8
Full
Mar 14
Last Quarter
Mar 22
New

Hourly Weather History & Observations

Time (EST) Temp. Windchill Dew Point Humidity Pressure Visibility Wind Dir Wind Speed Gust Speed Precip Events Conditions
12:54 AM 41.0 °F 39.0 °F 36.0 °F 82% 29.43 in 10.0 mi Variable 3.5 mph - 0.00 in Rain Light Rain
1:54 AM 39.0 °F - 34.0 °F 82% 29.40 in 10.0 mi Calm Calm - 0.00 in   Clear
2:54 AM 37.0 °F - 35.1 °F 93% 29.38 in 10.0 mi Calm Calm - N/A   Overcast
3:54 AM 37.9 °F - 35.1 °F 89% 29.39 in 10.0 mi Calm Calm - N/A   Overcast
4:54 AM 37.0 °F 34.5 °F 34.0 °F 89% 29.41 in 10.0 mi NW 3.5 mph - 0.00 in   Overcast
5:09 AM 37.4 °F 33.8 °F 35.6 °F 93% 29.41 in 2.5 mi SW 4.6 mph - 0.04 in Rain Rain
5:16 AM 37.4 °F 34.9 °F 35.6 °F 93% 29.41 in 6.0 mi West 3.5 mph - 0.05 in Rain Light Rain
5:54 AM 37.9 °F 32.7 °F 35.1 °F 89% 29.44 in 10.0 mi West 6.9 mph - 0.05 in   Overcast
6:54 AM 37.0 °F 32.4 °F 34.0 °F 89% 29.47 in 10.0 mi West 5.8 mph - N/A   Partly Cloudy
7:54 AM 39.0 °F 33.4 °F 36.0 °F 89% 29.52 in 10.0 mi West 8.1 mph - N/A   Mostly Cloudy
8:14 AM 39.2 °F 32.5 °F 37.4 °F 93% 29.52 in 10.0 mi WSW 10.4 mph - N/A   Mostly Cloudy
8:54 AM 43.0 °F 37.2 °F 36.0 °F 76% 29.55 in 10.0 mi West 10.4 mph - N/A   Mostly Cloudy
9:28 AM 44.6 °F 38.4 °F 35.6 °F 71% 29.55 in 10.0 mi West 12.7 mph - N/A   Mostly Cloudy
9:54 AM 46.0 °F 39.3 °F 34.0 °F 63% 29.56 in 10.0 mi West 16.1 mph 21.9 mph N/A   Overcast
10:02 AM 46.4 °F 41.5 °F 33.8 °F 62% 29.55 in 10.0 mi West 10.4 mph 21.9 mph N/A   Scattered Clouds
10:54 AM 46.9 °F - 30.9 °F 54% 29.57 in 10.0 mi WNW 15.0 mph 23.0 mph N/A   Scattered Clouds
11:54 AM 50.0 °F - 30.9 °F 48% 29.59 in 10.0 mi WSW 18.4 mph - N/A   Scattered Clouds
12:54 PM 48.9 °F - 25.0 °F 39% 29.58 in 10.0 mi WNW 15.0 mph 21.9 mph N/A   Scattered Clouds
1:54 PM 52.0 °F - 21.0 °F 30% 29.57 in 10.0 mi West 15.0 mph 25.3 mph N/A   Clear
2:54 PM 53.1 °F - 21.9 °F 30% 29.60 in 10.0 mi West 12.7 mph 20.7 mph N/A   Partly Cloudy
3:54 PM 52.0 °F - 21.0 °F 30% 29.64 in 10.0 mi WNW 8.1 mph - N/A   Clear
4:54 PM 50.0 °F - 21.0 °F 32% 29.65 in 10.0 mi West 5.8 mph - N/A   Clear
5:54 PM 46.9 °F - 25.0 °F 42% 29.65 in 10.0 mi Calm Calm - N/A   Clear
6:54 PM 43.0 °F - 30.0 °F 60% 29.68 in 10.0 mi Calm Calm - N/A   Clear
7:54 PM 45.0 °F - 27.0 °F 49% 29.68 in 10.0 mi Calm Calm - N/A   Overcast
8:54 PM 43.0 °F - 28.9 °F 58% 29.70 in 10.0 mi Calm Calm - N/A   Overcast
9:54 PM 41.0 °F 39.0 °F 30.9 °F 67% 29.70 in 10.0 mi East 3.5 mph - N/A   Overcast
10:54 PM 44.1 °F 42.5 °F 30.9 °F 60% 29.68 in 10.0 mi South 3.5 mph - 0.00 in Rain Light Rain
11:54 PM 42.1 °F 37.1 °F 33.1 °F 70% 29.66 in 7.0 mi ENE 8.1 mph - 0.03 in Rain Rain